Date,TemperatureHighF,TemperatureAvgF,TemperatureLowF,DewpointHighF,DewpointAvgF,DewpointLowF,HumidityHigh,HumidityAvg,HumidityLow,PressureMaxIn,PressureMinIn,WindSpeedMaxMPH,WindSpeedAvgMPH,GustSpeedMaxMPH,PrecipitationSumIn
2013-1-1,23,15,10,16,10,5,84,80,70,30.24,30.10,0,0,0,0.00
2013-1-2,19,13,10,12,8,4,84,80,73,30.28,30.22,0,0,0,0.00
2013-1-3,28,11,-1,18,5,-5,82,77,63,30.23,30.12,0,0,0,0.00
2013-1-4,28,10,1,21,5,-4,87,78,66,30.21,30.13,0,0,0,0.00
2013-1-5,31,14,3,23,7,-2,88,76,60,30.18,30.02,0,0,0,0.00
2013-1-6,36,20,11,24,14,6,81,74,59,30.03,29.90,0,0,0,0.00
2013-1-7,26,18,6,22,13,1,86,83,81,30.00,29.94,0,0,0,0.00
2013-1-8,38,31,26,33,28,22,89,87,81,30.06,29.96,0,0,0,0.00
2013-1-9,40,32,25,37,29,22,91,88,85,30.05,29.51,4,0,4,0.00
2013-1-10,35,26,18,32,22,14,89,84,74,29.56,29.44,0,0,0,0.00
2013-1-11,27,18,2,16,12,-3,85,77,61,29.86,29.55,0,0,0,0.00
2013-1-12,24,5,-6,14,-2,-12,86,74,55,29.95,29.85,0,0,0,0.00
2013-1-13,22,3,-6,13,-4,-12,86,74,57,30.07,29.93,0,0,0,0.00
2013-1-14,20,8,-7,11,2,-12,81,77,68,30.17,30.06,0,0,0,0.00
2013-1-15,35,17,6,23,11,1,82,76,60,30.38,30.17,0,0,0,0.00
2013-1-16,30,11,1,20,5,-4,87,77,62,30.43,30.37,0,0,0,0.00
2013-1-17,33,11,0,21,4,-6,87,76,60,30.42,30.28,0,0,0,0.00
2013-1-18,38,13,2,24,7,-3,88,75,56,30.29,30.19,0,0,0,0.00
2013-1-19,38,15,4,26,8,0,86,75,56,30.37,30.22,0,0,0,0.00
2013-1-20,38,14,4,24,7,-1,87,75,55,30.36,30.31,0,0,0,0.00
2013-1-21,41,22,6,26,14,1,87,70,51,30.30,30.19,0,0,0,0.00
2013-1-22,42,19,7,29,11,2,88,74,50,30.21,30.04,0,0,0,0.00
2013-1-23,40,24,11,25,16,7,84,73,51,30.04,29.93,0,0,0,0.00
2013-1-24,45,35,31,38,30,23,88,83,71,30.09,29.99,0,0,0,0.00
2013-1-25,45,36,31,38,32,28,90,85,73,30.09,29.86,0,0,0,0.00
2013-1-26,48,36,31,42,32,28,91,88,78,29.90,29.67,0,0,0,0.00
2013-1-27,38,28,17,33,23,13,90,83,67,29.79,29.70,0,0,0,0.00
2013-1-28,34,23,12,26,18,8,86,82,70,29.81,29.70,0,0,0,0.00
2013-1-29,41,30,25,30,24,21,88,79,57,30.03,29.68,0,0,0,0.00
2013-1-30,39,32,28,34,29,23,89,86,80,30.12,30.00,0,0,0,0.00
2013-1-31,42,32,25,36,28,22,90,87,79,30.15,30.06,0,0,0,0.00
2013-2-1,52,33,23,40,27,20,91,80,51,30.22,30.06,0,0,0,0.00
2013-2-2,50,28,18,37,22,14,90,80,53,30.27,30.16,0,0,0,0.00
2013-2-3,50,30,22,35,24,18,88,79,50,30.16,30.02,0,0,0,0.00
2013-2-4,54,33,22,36,25,18,88,74,44,30.03,29.91,0,0,0,0.00
2013-2-5,48,35,26,32,26,21,85,72,51,29.92,29.75,0,0,0,0.00
2013-2-6,52,30,21,31,22,16,88,74,43,29.96,29.83,0,0,0,0.00
2013-2-7,42,30,21,28,21,16,82,69,51,29.93,29.73,0,0,0,0.00
2013-2-8,48,32,24,28,22,16,85,68,43,29.75,29.63,0,0,0,0.00
2013-2-9,44,29,19,21,16,12,74,61,38,29.78,29.64,0,0,0,0.00
2013-2-10,45,27,16,18,12,6,74,55,28,29.94,29.77,0,0,0,0.00
2013-2-11,49,24,10,23,10,2,71,58,34,30.02,29.93,0,0,0,0.00
2013-2-12,44,29,17,27,19,10,78,67,51,30.15,30.02,0,0,0,0.00
2013-2-13,49,34,27,32,25,20,80,70,48,30.15,30.06,0,0,0,0.00
2013-2-14,53,31,20,30,21,15,90,69,38,30.27,30.10,0,0,0,0.00
2013-2-15,60,32,18,34,21,14,85,67,36,30.30,30.20,0,0,0,0.00
2013-2-16,62,34,21,36,24,16,90,69,37,30.20,29.81,5,0,5,0.00
2013-2-17,42,30,19,30,21,12,88,70,44,29.93,29.83,0,0,0,0.00
2013-2-18,47,27,14,22,14,9,83,61,34,29.93,29.63,0,0,0,0.00
2013-2-19,44,31,25,32,22,12,82,69,51,29.63,29.51,0,0,0,0.00
2013-2-20,49,29,19,30,19,11,88,68,40,29.74,29.57,0,0,0,0.00
2013-2-21,48,25,9,23,14,4,82,66,36,29.87,29.73,0,0,0,0.00
2013-2-22,40,30,23,28,24,18,85,78,61,29.94,29.68,0,0,0,0.00
2013-2-23,44,28,17,27,20,12,87,72,45,29.98,29.57,8,0,8,0.00
2013-2-24,49,24,10,28,14,5,88,68,36,30.08,29.97,4,0,4,0.00
2013-2-25,38,23,12,27,17,7,84,78,62,30.04,29.87,0,0,0,0.00
2013-2-26,48,26,12,30,16,8,89,71,40,30.13,29.93,0,0,0,0.00
2013-2-27,52,26,11,28,15,7,84,65,36,30.18,30.12,0,0,0,0.00
2013-2-28,44,32,22,32,24,14,86,73,53,30.28,30.12,3,0,3,0.00
2013-3-1,62,39,29,42,32,25,89,77,45,30.33,30.28,0,0,0,0.00
2013-3-2,58,39,26,40,30,22,90,73,48,30.29,29.90,0,0,0,0.00
2013-3-3,53,35,21,34,23,8,88,65,27,29.93,29.84,8,0,8,0.00
2013-3-4,53,27,12,22,10,4,71,51,27,30.03,29.93,5,0,5,0.00
2013-3-5,55,32,16,27,16,6,68,53,33,29.99,29.64,0,0,0,0.00
2013-3-6,51,37,30,35,26,20,74,67,49,29.82,29.55,9,0,9,0.00
2013-3-7,53,33,20,30,20,15,84,61,33,29.88,29.80,2,0,2,0.00
2013-3-8,60,34,21,28,19,14,74,57,27,29.81,29.70,0,0,0,0.00
2013-3-9,56,34,21,26,19,14,78,56,29,30.17,29.80,6,0,6,0.00
2013-3-10,57,36,20,28,17,12,76,51,25,30.21,30.12,4,0,4,0.00
2013-3-11,52,41,33,35,26,18,71,57,46,30.14,30.06,7,0,7,0.00
2013-3-12,62,39,26,38,28,20,83,66,41,30.12,30.05,0,0,0,0.00
2013-3-13,67,44,31,39,31,26,85,63,33,30.13,30.08,0,0,0,0.00
2013-3-14,64,44,31,37,30,23,75,59,36,30.13,30.02,0,0,0,0.00
2013-3-15,61,44,31,36,29,23,73,59,37,30.04,29.97,3,0,3,0.00
2013-3-16,57,38,24,34,26,20,85,66,33,29.99,29.75,0,0,0,0.00
2013-3-17,43,32,25,31,19,11,84,59,35,29.92,29.73,7,0,7,0.00
2013-3-18,46,31,22,23,17,13,71,57,37,29.99,29.91,8,0,8,0.00
2013-3-19,55,35,16,21,15,9,74,49,22,30.04,29.84,3,0,3,0.00
2013-3-20,51,39,32,43,32,18,87,77,41,29.85,29.59,3,0,3,0.00
2013-3-21,43,31,25,30,21,16,87,66,44,29.92,29.72,9,0,9,0.00
2013-3-22,42,26,16,24,19,11,84,75,46,29.95,29.80,8,0,8,0.00
2013-3-23,46,23,8,19,10,4,83,62,33,30.05,29.94,5,0,5,0.00
2013-3-24,50,27,11,20,12,5,78,55,29,30.05,29.98,3,0,3,0.00
2013-3-25,56,35,20,26,18,12,74,53,31,30.00,29.84,4,0,4,0.00
2013-3-26,54,38,31,39,28,20,84,70,53,29.86,29.78,1,0,1,0.00
2013-3-27,59,40,28,38,30,24,89,71,42,29.90,29.83,2,0,2,0.00
2013-3-28,67,46,31,40,32,26,86,63,35,29.99,29.88,4,0,4,0.00
2013-3-29,68,47,34,42,34,27,86,63,33,30.10,29.98,4,0,4,0.00
2013-3-30,70,46,30,42,29,23,86,57,25,30.13,30.04,3,0,3,0.00
2013-3-31,78,48,27,37,28,21,81,51,22,30.05,29.83,3,0,3,0.00
2013-4-1,70,48,31,44,32,23,81,58,37,29.93,29.86,4,0,4,0.00
2013-4-2,72,48,32,44,33,27,87,60,31,30.02,29.92,5,0,5,0.00
2013-4-3,71,48,31,42,33,26,83,60,35,30.06,29.99,6,0,6,0.00
2013-4-4,67,49,36,43,36,29,79,63,36,30.01,29.81,0,0,0,0.00
2013-4-5,58,46,35,41,36,27,85,68,44,29.94,29.84,5,0,5,0.00
2013-4-6,53,43,35,42,36,28,87,77,60,29.92,29.82,3,0,3,0.00
2013-4-7,50,40,33,41,35,29,88,83,65,29.83,29.60,9,0,9,0.00
2013-4-8,54,39,28,39,28,21,90,67,39,29.80,29.58,9,0,9,0.00
2013-4-9,61,42,26,28,21,18,74,48,23,30.06,29.80,8,0,8,0.00
2013-4-10,56,41,25,39,28,18,81,61,37,30.07,29.86,0,0,0,0.00
2013-4-11,62,41,27,36,27,19,85,60,36,29.95,29.88,9,0,9,0.00
2013-4-12,64,42,23,31,22,17,79,51,24,29.92,29.65,4,0,4,0.00
2013-4-13,50,41,24,35,22,9,84,51,27,29.78,29.56,11,0,11,0.00
2013-4-14,47,32,18,25,15,9,71,51,34,29.79,29.62,2,0,2,0.00
2013-4-15,46,33,23,30,22,16,80,64,48,29.68,29.60,5,0,5,0.00
2013-4-16,50,35,24,28,21,14,83,61,29,29.92,29.67,8,0,8,0.00
2013-4-17,52,35,19,23,14,8,73,45,23,30.11,29.91,8,0,8,0.00
2013-4-18,57,37,19,28,16,7,62,45,28,30.15,30.10,6,0,6,0.00
2013-4-19,47,39,31,40,32,19,87,76,59,30.12,29.88,0,0,0,0.00
2013-4-20,56,43,32,40,34,25,89,72,45,30.03,29.92,6,0,6,0.00
2013-4-21,59,43,27,39,28,23,86,60,34,30.03,29.90,8,0,8,0.00
2013-4-22,56,41,28,29,21,12,74,48,26,30.14,29.94,8,0,8,0.00
2013-4-23,58,37,20,26,17,11,71,47,25,30.14,29.99,4,0,4,0.00
2013-4-24,65,42,23,30,21,14,70,47,25,30.14,29.99,5,0,5,0.00
2013-4-25,69,47,26,34,25,18,76,47,20,30.02,29.91,7,0,7,0.00
2013-4-26,74,52,31,40,30,22,74,47,26,30.17,30.01,6,0,6,0.00
2013-4-27,73,54,35,45,31,25,75,46,21,30.17,30.03,8,0,8,0.00
2013-4-28,69,51,38,39,30,25,66,47,30,30.04,29.96,8,0,8,0.00
2013-4-29,66,45,32,39,29,15,75,56,33,29.97,29.77,9,0,9,0.00
2013-4-30,55,37,22,27,16,11,65,45,28,30.09,29.82,8,0,8,0.00
2013-5-1,62,40,20,23,17,11,68,43,21,30.41,30.09,6,0,6,0.00
2013-5-2,72,46,24,30,20,12,63,39,20,30.43,30.21,6,0,6,0.00
2013-5-3,70,51,31,35,26,17,59,40,23,30.21,29.97,7,0,7,0.00
2013-5-4,69,51,37,41,31,24,70,49,28,29.99,29.88,4,0,4,0.00
2013-5-5,77,53,33,44,34,27,80,53,29,29.92,29.82,6,0,6,0.00
2013-5-6,79,55,39,45,37,29,72,52,27,29.87,29.80,5,0,5,0.00
2013-5-7,77,52,38,49,41,32,86,68,34,29.95,29.83,13,0,13,0.00
2013-5-8,74,53,39,54,44,36,90,74,34,30.08,29.94,5,0,5,0.00
2013-5-9,82,58,39,53,44,36,91,64,33,30.12,30.03,2,0,2,0.00
2013-5-10,83,60,39,51,42,35,85,58,28,30.22,30.12,3,0,3,0.00
2013-5-11,88,61,41,49,42,35,82,55,23,30.23,30.13,4,0,4,0.00
2013-5-12,88,66,45,51,43,35,73,48,25,30.17,30.03,4,0,4,0.00
2013-5-13,89,67,46,54,42,37,77,45,18,30.08,29.93,7,0,7,0.00
2013-5-14,78,60,42,46,39,33,75,48,29,30.07,29.97,7,0,7,0.00
2013-5-15,79,58,39,45,37,31,76,49,28,30.01,29.86,4,0,4,0.00
2013-5-16,67,55,46,43,38,34,75,54,35,29.91,29.83,0,0,0,0.00
2013-5-17,63,51,43,46,41,36,83,68,50,29.92,29.83,0,0,0,0.00
2013-5-18,66,50,34,49,35,28,89,61,35,30.01,29.91,4,0,4,0.00
2013-5-19,65,50,33,42,34,27,83,56,35,30.10,30.00,8,0,8,0.00
2013-5-20,76,54,32,45,36,28,87,55,20,30.12,29.99,7,0,7,0.00
2013-5-21,79,56,34,46,34,27,77,49,25,30.00,29.62,12,0,12,0.00
2013-5-22,58,43,28,30,24,13,69,49,24,29.89,29.67,7,0,7,0.00
2013-5-23,67,44,21,27,18,10,63,40,20,29.90,29.77,7,0,7,0.00
2013-5-24,70,49,27,34,25,15,64,42,24,29.92,29.86,2,0,2,0.00
2013-5-25,73,55,42,40,32,27,66,44,26,29.91,29.84,7,0,7,0.00
2013-5-26,70,50,39,46,36,26,85,60,33,29.95,29.85,5,0,5,0.00
2013-5-27,64,51,41,47,40,35,88,70,38,29.97,29.81,1,0,1,0.00
2013-5-28,62,50,41,47,42,35,87,77,53,29.83,29.75,8,0,8,0.00
2013-5-29,60,45,35,46,38,32,89,77,53,29.86,29.71,2,0,2,0.00
2013-5-30,66,48,33,44,36,30,89,66,35,30.03,29.85,7,0,7,0.00
2013-5-31,72,51,31,43,33,26,88,56,30,30.17,30.02,4,0,4,0.00
2013-6-1,80,56,34,45,36,28,81,51,28,30.17,29.95,3,0,3,0.00
2013-6-2,77,59,41,47,37,30,76,47,25,29.95,29.81,6,0,6,0.00
2013-6-3,76,55,34,43,35,28,82,50,26,30.00,29.94,6,0,6,0.00
2013-6-4,81,59,37,46,37,29,78,48,26,30.07,29.99,5,0,5,0.00
2013-6-5,86,62,40,48,40,32,79,48,24,30.09,30.02,3,0,3,0.00
2013-6-6,90,66,45,52,43,35,74,47,23,30.06,29.99,0,0,0,0.00
2013-6-7,89,69,49,54,44,38,72,46,24,30.03,29.96,7,0,7,0.00
2013-6-8,87,66,44,49,41,34,77,44,22,30.07,30.01,4,0,4,0.00
2013-6-9,93,68,45,52,44,35,73,46,25,30.07,29.88,6,0,6,0.00
2013-6-10,90,69,51,54,46,36,73,46,27,29.90,29.75,4,0,4,0.00
2013-6-11,86,64,45,50,42,34,68,46,26,29.96,29.80,4,0,4,0.00
2013-6-12,82,62,42,48,39,33,75,47,24,29.99,29.89,4,0,4,0.00
2013-6-13,68,55,45,45,38,32,83,55,32,30.09,29.93,6,0,6,0.00
2013-6-14,72,53,41,43,36,29,82,56,30,30.17,30.07,2,0,2,0.00
2013-6-15,87,58,32,43,34,26,80,47,20,30.08,29.95,8,0,8,0.00
2013-6-16,92,65,41,48,37,28,65,40,18,30.02,29.97,3,0,3,0.00
2013-6-17,92,67,44,47,38,29,62,37,19,30.04,29.91,3,0,3,0.00
2013-6-18,88,65,45,50,39,31,64,41,20,29.92,29.73,6,0,6,0.00
2013-6-19,60,51,41,47,41,34,83,69,42,30.01,29.73,2,0,2,0.00
2013-6-20,70,51,38,44,36,31,86,61,30,30.01,29.96,4,0,4,0.00
2013-6-21,68,51,36,43,35,28,78,56,35,30.05,29.98,4,0,4,0.00
2013-6-22,78,55,34,46,38,30,85,57,31,30.04,29.96,2,0,2,0.00
2013-6-23,84,61,37,48,41,31,82,52,26,29.97,29.69,3,0,3,0.00
2013-6-24,70,59,49,54,48,43,87,68,47,29.87,29.73,0,0,0,0.00
2013-6-25,66,55,46,55,50,43,89,81,61,30.00,29.86,0,0,0,0.00
2013-6-26,88,65,52,61,53,48,90,68,33,30.13,29.99,5,0,5,0.00
2013-6-27,94,70,48,59,50,43,86,55,24,30.23,30.12,8,0,8,0.00
2013-6-28,102,74,50,56,48,39,71,43,20,30.24,30.12,19,0,19,0.00
2013-6-29,101,77,58,63,53,45,69,46,24,30.18,30.05,9,0,9,0.00
2013-6-30,102,78,56,63,53,46,74,46,23,30.16,30.07,9,0,9,0.00
2013-7-1,106,82,58,61,54,45,65,41,19,30.19,30.09,12,0,12,0.00
2013-7-2,105,83,62,62,55,48,63,41,24,30.21,30.11,18,0,18,0.00
2013-7-3,97,79,64,63,56,49,75,49,24,30.23,29.89,13,0,13,0.00
2013-7-4,95,74,56,57,50,41,70,45,24,30.10,29.95,18,0,18,0.00
2013-7-5,92,70,49,55,45,36,71,44,25,29.99,29.89,0,0,0,0.00
2013-7-6,93,69,46,51,42,34,66,42,22,29.96,29.87,0,0,0,0.00
2013-7-7,97,73,50,54,44,35,62,39,19,29.95,29.88,16,0,16,0.00
2013-7-8,94,70,50,53,43,34,60,40,23,30.12,29.94,6,0,6,0.00
2013-7-9,98,73,48,51,41,34,62,37,16,30.19,30.12,8,0,8,0.00
2013-7-10,102,76,53,52,42,32,53,33,18,30.14,29.98,12,0,12,0.00
2013-7-11,86,70,58,51,44,38,54,41,27,30.04,29.96,2,0,2,0.00
2013-7-20,101,89,61,51,42,28,34,20,15,30.06,29.99,0,0,0,0.00
2013-7-21,100,74,49,47,33,24,45,25,12,30.03,29.99,0,0,0,0.00
2013-7-22,100,73,47,45,30,20,41,23,11,30.11,30.00,0,0,0,0.00
2013-7-23,100,73,47,46,33,23,44,26,12,30.13,30.07,0,0,0,0.00
2013-7-24,101,75,55,49,39,26,40,28,17,30.14,30.08,0,0,0,0.00
2013-7-25,101,76,55,54,43,36,58,35,17,30.19,30.11,0,0,0,0.00
2013-7-26,99,77,55,51,43,34,51,32,19,30.21,30.13,0,0,0,0.00
2013-7-27,95,74,59,51,43,32,58,35,18,30.16,29.99,0,0,0,0.00
2013-7-28,92,69,46,50,35,25,47,31,17,30.01,29.93,0,0,0,0.00
2013-7-29,91,68,46,43,34,24,46,30,18,30.04,29.96,0,0,0,0.00
2013-7-30,95,71,48,48,37,28,51,31,16,30.17,30.04,0,0,0,0.00
2013-7-31,98,70,50,50,37,26,44,31,18,30.17,29.99,0,0,0,0.00
2013-8-1,90,71,54,52,42,36,52,37,21,30.04,29.93,0,0,0,0.00
2013-8-2,86,62,41,47,36,26,71,42,19,30.09,30.02,0,0,0,0.00
2013-8-3,91,65,41,42,33,24,55,34,19,30.12,30.05,0,0,0,0.00
2013-8-4,97,70,46,46,35,26,49,31,16,30.10,30.03,0,0,0,0.00
2013-8-5,98,73,50,47,36,28,48,29,15,30.06,30.01,0,0,0,0.00
2013-8-6,96,72,51,50,37,27,52,31,16,30.09,30.03,0,0,0,0.00
2013-8-7,99,73,50,46,36,26,44,29,15,30.07,29.98,0,0,0,0.00
2013-8-8,96,74,58,48,41,34,46,32,20,30.06,29.96,0,0,0,0.00
2013-8-9,90,74,55,51,41,30,54,33,16,30.04,29.96,0,0,0,0.00
2013-8-10,89,70,50,47,37,29,53,32,19,30.04,29.99,0,0,0,0.00
2013-8-11,92,70,54,51,40,29,47,35,23,30.06,30.00,0,0,0,0.00
2013-8-12,93,70,52,50,42,36,56,38,20,30.07,30.00,0,0,0,0.00
2013-8-13,97,73,56,54,42,32,66,36,19,30.14,30.04,0,0,0,0.00
2013-8-14,99,72,50,47,35,27,47,30,13,30.10,30.04,0,0,0,0.00
2013-8-15,103,75,50,43,34,24,40,25,12,30.07,30.01,0,0,0,0.00
2013-8-16,101,74,50,47,35,25,41,26,15,30.12,30.03,0,0,0,0.00
2013-8-17,101,73,51,47,37,28,44,29,15,30.12,30.07,0,0,0,0.00
2013-8-18,98,73,52,50,40,31,47,32,18,30.15,30.09,0,0,0,0.00
2013-8-19,98,73,53,49,40,33,52,33,18,30.16,30.08,0,0,0,0.00
2013-8-20,99,78,52,49,41,31,48,30,18,30.10,30.04,0,0,0,0.00
2013-8-31,98,79,60,45,36,28,30,22,16,30.06,30.00,0,0,0,0.00
2013-9-1,99,72,52,47,36,25,40,28,17,30.03,29.95,0,0,0,0.00
2013-9-2,89,71,59,53,44,34,66,39,27,30.10,29.96,0,0,0,0.00
2013-9-3,84,65,57,63,55,49,87,72,43,30.17,30.07,0,0,0,0.00
2013-9-4,94,69,55,67,56,50,91,67,30,30.15,30.07,0,0,0,0.00
2013-9-5,86,66,58,63,56,50,88,72,34,30.14,29.94,0,0,0,0.00
2013-9-6,85,64,47,63,47,34,91,60,22,30.14,30.02,0,0,0,0.00
2013-9-7,89,61,41,47,39,32,75,49,22,30.14,30.04,0,0,0,0.00
2013-9-8,85,62,44,49,40,30,66,48,28,30.07,29.98,0,0,0,0.00
2013-9-9,89,62,43,51,42,36,81,52,27,30.03,29.96,0,0,0,0.00
2013-9-10,93,64,45,52,42,36,74,49,24,30.08,30.00,0,0,0,0.00
2013-9-11,96,68,48,51,44,39,73,46,21,30.11,30.04,0,0,0,0.00
2013-9-12,86,65,54,56,50,39,86,61,35,30.14,30.03,0,0,0,0.00
2013-9-13,84,62,52,61,53,49,90,77,41,30.07,29.90,0,0,0,0.00
2013-9-14,89,63,52,59,53,49,91,73,36,29.99,29.92,0,0,0,0.00
2013-9-15,93,68,53,57,51,46,87,59,28,29.98,29.89,0,0,0,0.00
2013-9-16,90,67,52,54,44,32,80,49,21,29.99,29.89,0,0,0,0.00
2013-9-17,75,58,47,45,39,32,68,50,29,29.89,29.73,0,0,0,0.00
2013-9-18,66,50,36,40,35,26,70,57,35,30.09,29.84,0,0,0,0.00
2013-9-19,79,49,30,42,31,25,85,56,25,30.12,30.01,0,0,0,0.00
2013-9-20,91,57,34,42,30,24,70,42,16,30.02,29.72,0,0,0,0.00
2013-9-21,80,58,47,39,32,24,59,39,23,29.78,29.69,0,0,0,0.00
2013-9-22,61,50,40,43,36,31,75,60,44,29.86,29.69,0,0,0,0.00
2013-9-23,70,53,41,42,37,32,76,56,34,30.00,29.86,0,0,0,0.00
2013-9-24,56,46,41,46,38,31,87,73,57,29.94,29.75,0,0,0,0.00
2013-9-25,46,42,38,41,37,35,89,86,79,29.75,29.63,0,0,0,0.00
2013-9-26,57,44,36,42,37,31,89,78,50,29.88,29.68,0,0,0,0.00
2013-9-27,60,42,28,44,31,24,90,68,42,30.03,29.88,0,0,0,0.00
2013-9-28,67,50,40,43,38,34,84,65,38,30.04,29.84,0,0,0,0.00
2013-9-29,54,50,47,46,44,40,89,80,59,29.85,29.75,0,0,0,0.00
2013-9-30,59,47,34,46,40,29,90,78,47,29.95,29.70,0,0,0,0.00
2013-10-1,64,41,31,48,33,26,87,76,47,30.02,29.90,0,0,0,0.00
2013-10-2,64,39,27,39,30,23,88,71,37,30.02,29.80,0,0,0,0.00
2013-10-3,59,40,34,36,29,23,86,67,40,30.11,29.81,0,0,0,0.00
2013-10-4,66,41,26,35,25,19,77,56,28,30.31,30.10,0,0,0,0.00
2013-10-5,72,42,25,38,27,20,84,60,27,30.32,30.26,0,0,0,0.00
2013-10-6,82,47,27,42,29,21,82,56,22,30.29,30.02,0,0,0,0.00
2013-10-7,74,48,33,39,28,22,69,49,25,30.02,29.86,0,0,0,0.00
2013-10-8,64,40,28,37,27,22,83,61,34,29.91,29.81,0,0,0,0.00
2013-10-9,70,41,26,40,29,21,87,65,32,29.81,29.71,0,0,0,0.00
2013-10-10,58,42,30,39,31,25,87,68,45,29.86,29.69,0,0,0,0.00
2013-10-11,65,39,26,42,27,22,89,65,34,29.95,29.85,0,0,0,0.00
2013-10-12,65,43,30,37,29,24,82,61,34,29.94,29.83,0,0,0,0.00
2013-10-13,66,44,29,39,31,24,84,61,36,30.04,29.89,0,0,0,0.00
2013-10-14,65,40,26,40,27,21,88,63,34,30.16,30.04,0,0,0,0.00
2013-10-15,67,40,26,38,26,20,85,61,32,30.22,30.12,0,0,0,0.00
2013-10-16,68,38,24,39,25,19,85,62,31,30.12,30.00,0,0,0,0.00
2013-10-17,67,41,26,35,26,18,80,57,30,30.09,30.00,0,0,0,0.00
2013-10-18,68,40,24,39,26,20,86,61,29,30.17,30.08,0,0,0,0.00
2013-10-19,74,42,26,40,27,21,85,58,28,30.12,30.00,0,0,0,0.00
2013-10-20,70,45,29,36,28,20,72,54,27,30.06,29.98,0,0,0,0.00
2013-10-21,74,45,29,41,30,24,84,59,30,30.13,30.04,0,0,0,0.00
2013-10-22,76,45,30,43,30,25,88,60,29,30.14,30.06,0,0,0,0.00
2013-10-23,79,46,30,43,30,24,81,57,28,30.09,30.02,0,0,0,0.00
2013-10-24,78,47,32,42,30,25,80,56,27,30.09,30.02,0,0,0,0.00
2013-10-25,77,47,31,42,29,23,75,54,25,30.18,30.07,0,0,0,0.00
2013-10-26,75,46,31,42,29,24,79,56,29,30.22,30.07,0,0,0,0.00
2013-10-27,65,44,27,36,28,21,84,57,29,30.08,29.52,0,0,0,0.00
2013-10-28,52,43,35,41,35,27,86,75,57,29.67,29.43,0,0,0,0.00
2013-10-29,57,38,28,40,31,24,89,78,48,29.90,29.66,0,0,0,0.00
2013-10-30,47,34,26,37,28,22,87,80,64,29.99,29.87,0,0,0,0.00
2013-10-31,43,34,24,35,29,20,88,83,71,30.07,29.98,0,0,0,0.00
2013-11-1,56,37,28,43,31,24,90,80,55,30.16,30.02,0,0,0,0.00
2013-11-2,51,36,27,41,31,23,90,84,62,30.02,29.73,0,0,0,0.00
2013-11-3,35,29,24,29,24,20,88,82,69,29.88,29.76,0,0,0,0.00
2013-11-4,38,27,18,28,21,13,88,77,56,29.98,29.83,0,0,0,0.00
2013-11-5,32,24,12,26,19,8,87,82,69,30.09,29.97,0,0,0,0.00
2013-11-6,48,37,29,40,32,26,89,84,69,30.19,30.09,0,0,0,0.00
2013-11-7,48,40,35,44,37,32,90,89,85,30.16,29.80,0,0,0,0.00
2013-11-8,45,36,29,40,30,26,91,80,62,29.99,29.89,0,0,0,0.00
2013-11-9,58,36,24,37,27,21,89,72,41,30.14,29.98,0,0,0,0.00
2013-11-10,64,40,28,41,30,24,86,69,42,30.16,30.09,0,0,0,0.00
2013-11-11,57,40,29,40,31,25,86,73,51,30.23,30.13,0,0,0,0.00
2013-11-12,61,42,29,38,30,23,80,65,42,30.25,30.21,0,0,0,0.00
2013-11-13,61,42,28,42,32,23,84,68,44,30.23,30.15,0,0,0,0.00
2013-11-14,46,33,25,34,27,22,87,77,58,30.16,29.73,0,0,0,0.00
2013-11-15,44,31,22,34,23,18,89,73,50,29.74,29.47,0,0,0,0.00
2013-11-16,38,30,24,32,26,20,87,82,72,29.66,29.37,0,0,0,0.00
2013-11-17,48,30,24,34,24,20,87,80,55,29.96,29.66,0,0,0,0.00
2013-11-18,42,30,21,34,26,17,89,82,69,29.96,29.77,0,0,0,0.00
2013-11-19,39,35,33,35,32,28,90,88,84,29.79,29.71,0,0,0,0.00
2013-11-20,40,34,25,36,31,21,91,86,79,29.88,29.67,0,0,0,0.00
2013-11-21,44,25,17,26,17,12,88,73,46,30.32,29.88,0,0,0,0.00
2013-11-22,44,23,13,24,14,8,86,71,43,30.34,30.25,0,0,0,0.00
2013-11-23,49,26,15,29,18,11,87,71,44,30.26,30.08,0,0,0,0.00
2013-11-24,49,28,17,29,19,12,85,71,43,30.11,30.01,0,0,0,0.00
2013-11-25,51,32,22,32,22,16,80,69,46,30.22,30.09,0,0,0,0.00
2013-11-26,52,33,22,37,24,18,89,73,47,30.22,30.04,0,0,0,0.00
2013-11-27,51,33,24,35,24,20,85,72,46,30.04,29.90,0,0,0,0.00
2013-11-28,50,33,25,33,25,21,84,73,49,30.02,29.92,0,0,0,0.00
2013-11-29,47,31,22,37,24,19,88,76,53,30.11,30.01,0,0,0,0.00
2013-11-30,45,35,28,34,29,23,86,78,66,30.14,30.09,0,0,0,0.00
2013-12-1,40,35,33,37,32,30,90,88,85,30.14,29.82,0,0,0,0.00
2013-12-2,45,36,17,38,30,13,90,81,69,29.83,29.50,0,0,0,0.00
2013-12-3,30,16,8,26,11,4,88,81,70,29.73,29.62,0,0,0,0.00
2013-12-4,19,11,4,10,6,1,87,79,65,29.91,29.72,0,0,0,0.00
2013-12-5,20,10,4,12,5,0,87,80,63,29.91,29.84,0,0,0,0.00
2013-12-6,20,10,-1,10,4,-4,86,77,64,29.87,29.64,0,0,0,0.00
2013-12-7,25,15,2,16,9,-2,84,77,66,29.82,29.54,0,0,0,0.00
2013-12-8,16,3,-6,7,-3,-10,85,77,59,30.12,29.81,0,0,0,0.00
2013-12-9,24,8,-5,10,1,-10,84,72,53,30.25,30.12,0,0,0,0.00
2013-12-10,28,17,6,14,9,1,82,71,52,30.19,30.09,0,0,0,0.00
2013-12-11,31,14,2,20,8,-2,85,78,60,30.28,30.19,0,0,0,0.00
2013-12-12,38,18,8,25,12,4,90,78,54,30.22,29.99,0,0,0,0.00
2013-12-13,42,29,16,30,22,12,87,77,61,30.24,29.99,0,0,0,0.00
2013-12-14,42,33,27,31,27,23,84,77,64,30.32,30.24,0,0,0,0.00
2013-12-15,37,29,24,30,24,20,87,82,72,30.30,30.18,0,0,0,0.00
2013-12-16,47,28,19,33,21,15,87,77,55,30.27,30.21,0,0,0,0.00
2013-12-17,46,28,18,28,19,14,83,72,46,30.27,29.97,0,0,0,0.00
2013-12-18,45,29,18,29,20,14,84,72,51,29.97,29.62,0,0,0,0.00
2013-12-19,39,27,15,23,18,9,84,69,48,29.83,29.58,0,0,0,0.00
2013-12-20,26,18,9,18,12,5,88,77,59,29.83,29.59,0,0,0,0.00
2013-12-21,41,26,16,32,21,12,89,80,67,29.91,29.58,0,0,0,0.00
2013-12-22,38,32,26,33,28,22,88,85,79,30.14,29.90,0,0,0,0.00
2013-12-23,39,34,32,36,32,29,90,89,87,30.18,30.03,0,0,0,0.00
2013-12-24,40,27,18,32,21,13,90,80,58,30.33,30.09,0,0,0,0.00
2013-12-25,42,22,13,26,16,10,91,78,52,30.36,30.25,0,0,0,0.00
2013-12-26,43,25,16,28,18,12,90,76,52,30.28,30.21,0,0,0,0.00
2013-12-27,43,27,16,29,19,13,90,74,53,30.22,30.01,0,0,0,0.00
2013-12-28,43,28,20,26,18,13,83,69,45,30.17,29.99,0,0,0,0.00
2013-12-29,39,24,14,24,16,10,88,73,52,30.19,30.09,0,0,0,0.00
2013-12-30,38,28,20,24,18,13,78,68,54,30.15,30.04,0,0,0,0.00
2013-12-31,42,32,26,32,26,22,86,77,64,30.10,30.00,0,0,0,0.00
2014-1-1,44,29,24,33,24,19,88,81,61,30.22,30.10,0,0,0,0.00
2014-1-2,45,28,19,32,22,16,87,77,56,30.17,29.96,0,0,0,0.00